User: anonymous   Login
Location: Eckley
(40.9930°N, 75.8630°W)
Time: 16:40:00
(UTC-04:00)
Language:

Cosmos 2221 Rocket - Orbit

View from above orbital plane
View from above orbital plane
View from above satellite
View from above satellite

Ground track
Ground track

The orbit data is extracted from the following two-line orbital elements,

1 22237U 92080B   14298.12156249  .00000805  00000-0  10818-3 0  4774
2 22237 082.5101 296.2149 0021462 122.6366 304.4134 14.77930902180728
Epoch (UTC): 25 October 2014 02:55:02
Eccentricity: 0.0021462
inclination: 82.5101°
perigee height: 621 km
apogee height: 651 km
right ascension of ascending node: 296.2149°
argument of perigee: 122.6366°
revolutions per day: 14.77930902
mean anomaly at epoch: 304.4134°
orbit number at epoch: 18072

The dashed part of the orbit path shows where the satellite is in the earth's shadow,  

DLR